Flag for U.S.A. Weather past 2 weeks in Glennallen, Alaska, U.S.A.

Now
46 °F

Clear.


Feels Like: 45 °F
Forecast: 41 / 78 °F
Wind: 3 mph from Southeast

Location: Gulkana Airport

Current Time: May 22, 2015 at 12:45:18 AM

Latest Report: May 21, 2015 at 11:53 PM


Visibility: 10 mi

Pressure: 30.13 "Hg

Humidity: 51%

Dew point: 29 °F

Location of GlennallenLocation

Historic Weather in Glennallen — Graph

°F

Glennallen temperature yesterday

Maximum temperature yesterday: 76 °F (at 5:53 PM)
Minimum temperature yesterday: 35 °F (at 3:53 AM)
Average temperature yesterday: 57 °F

Past Weeks' High & Low Weather Summary

 TemperatureHumidityPressure
High76 °F (May 21, 5:53 PM)92% (May 9, 8:53 AM)30.21 "Hg (May 9, 8:53 AM)
Low33 °F (May 13, 4:53 AM)9% (May 17, 5:53 PM)29.76 "Hg (May 8, 4:53 PM)
Average52 °F45%30.00 "Hg
* Reported May 6 11:53 PM — May 21 11:53 PM, Glennallen, Weather by CustomWeather, © 2015

Note: Actual official high and low records may vary slightly from our data, if they occured in-between our weather recording intervals... More about our weather records

Advertising

Glennallen weather history for previous 24 hours

 ConditionsComfort  
Time TempWeatherWind HumidityBarometerVisibility
11:53 PM
Thu, May 21
46 °FClear.3 mph51%30.13 "Hg10 mi
10:53 PM50 °FSunny.No wind48%30.11 "Hg10 mi
9:53 PM60 °FSunny.5 mph31%30.09 "Hg10 mi
8:53 PM67 °FSunny.7 mph21%30.07 "Hg10 mi
7:53 PM74 °FSunny.6 mph12%30.04 "Hg10 mi
6:53 PM76 °FSunny.12 mph12%30.03 "Hg10 mi
5:53 PM76 °FSunny.6 mph13%30.04 "Hg10 mi
4:53 PM75 °FSunny.8 mph15%30.06 "Hg10 mi
3:53 PM74 °FSunny.3 mph14%30.07 "Hg10 mi
2:53 PM73 °FSunny.5 mph17%30.08 "Hg10 mi
1:53 PM71 °FSunny.5 mph18%30.08 "Hg10 mi
12:53 PM67 °FSunny.6 mph21%30.10 "Hg10 mi
11:53 AM64 °FSunny.7 mph29%30.11 "Hg10 mi
10:53 AM60 °FSunny.N/A38%30.12 "Hg10 mi
9:53 AM56 °FSunny.5 mph46%30.13 "Hg10 mi
8:53 AM51 °FSunny.5 mph54%30.14 "Hg10 mi
7:53 AM48 °FSunny.No wind59%30.14 "Hg10 mi
6:53 AM44 °FSunny.No wind65%30.14 "Hg10 mi
5:53 AM37 °FSunny.No wind76%30.14 "Hg10 mi
4:53 AM35 °FClear.No wind78%30.13 "Hg10 mi
3:53 AM35 °FClear.No wind82%30.13 "Hg10 mi
2:53 AM39 °FClear.No wind70%30.12 "Hg10 mi
1:53 AM48 °FClear.5 mph54%30.09 "Hg10 mi
12:53 AM50 °FClear.7 mph44%30.08 "Hg10 mi
Weather by CustomWeather, © 2015

See weather overviewHow to use our weather pages